Weather History for Fort Rucker / Ozark, AL

Change the Weather History Date:

Sunday, March 24, 2013

  Actual Average (KOZR) Record (KOZR)
Temperature  
Mean Temperature 64 °F -  
Max Temperature 80 °F 69 °F 82 °F (2007)
Min Temperature 46 °F 46 °F 33 °F (2002)
Degree Days  
Heating Degree Days 1    
Growing Degree Days 14 (Base 50)    
Moisture  
Dew Point 57 °F    
Average Humidity 79    
Maximum Humidity 100    
Minimum Humidity 45    
Precipitation  
Precipitation 0.12 in - - ()
Sea Level Pressure  
Sea Level Pressure 29.44 in    
Wind  
Wind Speed 6 mph (West)    
Max Wind Speed 23 mph    
Max Gust Speed 34 mph    
Visibility 6 miles    
Events Fog , Rain    
Averages and records for this station are not official NWS values.
T = Trace of Precipitation, MM = Missing Value Source: NWS Daily Summary

Daily Weather History Graph

Daily Weather History Graph

Search for Another Location

Airport:

Trip Planner

Search our weather history database for the weather conditions in past years. The results will help you decide how hot, cold, wet, or windy it might be!

Date:

Astronomy

Mar. 24, 2013 Rise Set
Actual Time 6:41 AM CDT 6:56 PM CDT
Civil Twilight 6:16 AM CDT 7:21 PM CDT
Nautical Twilight 5:48 AM CDT 7:49 PM CDT
Astronomical Twilight 5:19 AM CDT 8:18 PM CDT
Moon 4:32 PM CDT (3/24) 4:41 AM CDT (3/24)
Length of Visible Light 13h 04m
Length of Day
12h 15m
Waxing Gibbous, 92% of the Moon is Illuminated
Mar 24
Waxing Gibbous
Mar 27
Full
Apr 2
Last Quarter
Apr 10
New
Apr 18
First Quarter

Hourly Weather History & Observations

Time (CDT) Temp. Heat Index Dew Point Humidity Pressure Visibility Wind Dir Wind Speed Gust Speed Precip Events Conditions
12:33 AM 57.2 °F - 57.2 °F 100% 29.65 in 2.5 mi ESE 3.5 mph - 0.01 in Rain Light Rain
12:53 AM 57.0 °F - 57.0 °F 100% 29.61 in 1.8 mi Calm Calm - 0.01 in Rain Light Rain
1:19 AM 57.2 °F - 57.2 °F 100% 29.63 in 0.8 mi East 3.5 mph - 0.01 in Rain Light Rain
1:31 AM 57.2 °F - 57.2 °F 100% 29.62 in 1.0 mi Calm Calm - 0.02 in Rain Light Rain
1:38 AM 57.2 °F - 57.2 °F 100% 29.62 in 0.8 mi East 3.5 mph - 0.02 in   Mist
1:53 AM 57.9 °F - 57.9 °F 100% 29.56 in 0.5 mi Calm Calm - 0.02 in Fog , Rain Light Rain
2:53 AM 61.0 °F - 61.0 °F 100% 29.23 in 1.0 mi SSE 6.9 mph - 0.05 in Rain Light Rain
3:53 AM 64.0 °F - 64.0 °F 100% 29.22 in 2.0 mi SW 3.5 mph - 0.04 in   Overcast
4:14 AM 64.4 °F - 64.4 °F 100% 29.53 in 1.2 mi WSW 3.5 mph - N/A   Overcast
4:53 AM 64.9 °F - 64.9 °F 100% 29.20 in 1.5 mi Variable 3.5 mph - N/A   Overcast
5:04 AM 64.4 °F - 64.4 °F 100% 29.53 in 2.5 mi West 4.6 mph - N/A   Overcast
5:21 AM 64.4 °F - 64.4 °F 100% 29.53 in 1.5 mi West 3.5 mph - N/A   Overcast
5:43 AM 66.2 °F - 66.2 °F 100% 29.53 in 2.0 mi WSW 4.6 mph - N/A   Overcast
5:53 AM 66.0 °F - 66.0 °F 100% 29.20 in 2.5 mi WSW 3.5 mph - N/A   Overcast
6:03 AM 66.2 °F - 66.2 °F 100% 29.52 in 3.0 mi SW 3.5 mph - N/A   Overcast
6:29 AM 66.2 °F - 66.2 °F 100% 29.52 in 4.0 mi WSW 4.6 mph - N/A   Mostly Cloudy
6:53 AM 66.9 °F - 66.9 °F 100% 29.21 in 4.0 mi NW 12.7 mph 20.7 mph N/A   Overcast
7:13 AM 64.4 °F - 62.6 °F 94% 29.54 in 10.0 mi WNW 9.2 mph - N/A   Mostly Cloudy
7:53 AM 64.9 °F - 62.1 °F 90% 29.52 in 10.0 mi Variable 6.9 mph - N/A   Clear
8:14 AM 64.4 °F - 60.8 °F 88% 29.58 in 10.0 mi WNW 10.4 mph - N/A   Partly Cloudy
8:53 AM 64.9 °F - 59.0 °F 81% 29.55 in 10.0 mi WNW 9.2 mph - N/A   Partly Cloudy
9:53 AM 68.0 °F - 59.0 °F 73% 29.29 in 10.0 mi Variable 6.9 mph - N/A   Clear
10:53 AM 71.1 °F - 57.9 °F 63% 29.29 in 10.0 mi Calm Calm - N/A   Clear
11:53 AM 73.0 °F - 57.0 °F 57% 29.31 in 10.0 mi West 6.9 mph 16.1 mph N/A   Clear
12:53 PM 77.0 °F - 55.9 °F 48% 29.30 in 10.0 mi NW 9.2 mph 17.3 mph N/A   Clear
1:53 PM 78.1 °F - 57.0 °F 48% 29.26 in 10.0 mi West 11.5 mph 19.6 mph N/A   Clear
2:53 PM 79.0 °F - 55.9 °F 45% 29.25 in 10.0 mi WSW 12.7 mph 21.9 mph N/A   Clear
3:53 PM 80.1 °F 80.6 °F 57.9 °F 47% 29.25 in 10.0 mi Variable 5.8 mph 20.7 mph N/A   Scattered Clouds
4:53 PM 79.0 °F - 55.9 °F 45% 29.24 in 10.0 mi WNW 9.2 mph 20.7 mph N/A   Partly Cloudy
5:53 PM 78.1 °F - 55.9 °F 46% 29.24 in 10.0 mi West 10.4 mph 19.6 mph N/A   Partly Cloudy
6:53 PM 69.1 °F - 57.0 °F 65% 29.30 in 10.0 mi NW 23.0 mph 34.5 mph N/A   Mostly Cloudy
7:53 PM 64.0 °F - 48.9 °F 58% 29.37 in 10.0 mi WNW 15.0 mph 29.9 mph N/A   Clear
8:53 PM 59.0 °F - 44.1 °F 58% 29.42 in 10.0 mi NW 13.8 mph 19.6 mph N/A   Clear
9:53 PM 57.0 °F - 39.0 °F 51% 29.46 in 10.0 mi WNW 11.5 mph 21.9 mph N/A   Overcast
10:53 PM 52.0 °F - 37.0 °F 57% 29.50 in 10.0 mi NW 15.0 mph 23.0 mph N/A   Overcast
11:15 PM 48.2 °F - 33.8 °F 58% 29.85 in 10.0 mi NW 15.0 mph 26.5 mph N/A   Scattered Clouds
11:53 PM 46.9 °F - 30.9 °F 54% 29.82 in 10.0 mi NW 11.5 mph 21.9 mph N/A   Clear